Temp
25 25 24 24 24 24 24 24 24 24 25 24 24 23 23 23 23 23 23 23 23 22 23 22 22 21 21 20 20 20 20 20 19 19 20 21 20 21 21 20 20 21 21
24 24 25 24 24 25 25 24 24 25 25 24 24 23 23 23 23 22 22 22 22 22 22 22 21 21 20 20 20 20 20 19 19 18 16 17 20 20 20 20 20 21 21
25 24 24 24 24 24 25 25 25 25 25 24 24 23 22 22 22 22 22 22 22 22 22 21 21 21 21 21 20 20 19 19 19 18 18 17 18 16 20 20 20 20 20
26 25 24 24 24 25 25 25 25 25 25 24 24 23 23 22 22 22 23 22 22 22 22 22 21 20 20 20 20 19 19 19 19 18 18 18 17 17 17 20 20 20 20
26 25 25 25 25 25 25 26 26 26 25 24 24 23 23 23 23 23 22 22 22 21 22 21 21 21 20 20 20 19 19 19 18 18 18 18 17 16 15 16 17 20 20
26 26 26 26 25 25 25 26 26 26 25 25 24 24 23 23 22 22 22 22 21 22 22 21 21 21 20 20 20 19 19 19 19 18 18 18 18 17 16 16 15 15 19
26 26 25 25 24 24 25 26 26 26 25 25 25 24 24 23 23 23 23 22 22 22 22 21 21 20 20 20 20 20 20 20 19 19 19 19 19 18 17 16 15 15 17
27 26 25 25 25 24 25 25 25 25 25 25 24 24 24 23 23 23 23 22 22 22 22 21 21 21 21 20 20 20 20 20 20 19 19 19 19 18 18 17 15 14 13
27 26 26 26 25 25 25 25 25 25 25 25 25 24 24 23 22 23 23 22 22 22 21 21 21 21 20 20 20 20 20 20 20 20 20 19 19 19 18 17 17 16 15
27 27 26 26 25 25 25 25 25 25 25 26 25 25 24 23 23 24 23 22 22 22 21 21 20 20 20 20 20 20 20 20 20 20 20 19 19 19 18 18 17 16 15
27 26 26 26 26 26 26 25 24 24 24 25 25 24 24 23 24 24 23 23 22 22 22 21 21 20 20 20 20 20 20 20 20 20 19 19 19 19 18 17 17 16 15
26 26 26 26 26 26 26 25 24 24 24 24 24 24 24 24 24 24 23 23 22 22 22 21 21 20 20 20 20 20 20 20 20 20 20 20 19 18 18 17 17 16 16
23 25 25 25 25 25 25 25 25 24 24 23 23 23 23 24 24 24 24 23 22 22 21 21 21 20 20 20 20 20 21 20 20 20 20 20 19 19 19 18 17 17 16
23 23 24 24 25 25 24 25 25 24 23 22 22 22 23 24 24 23 23 23 22 22 22 21 21 21 21 21 21 21 21 21 21 20 20 20 19 19 19 18 18 18 16
23 23 24 23 23 25 24 24 24 24 23 22 21 22 23 22 20 22 22 23 22 22 22 21 21 21 21 21 21 21 21 21 21 21 20 20 19 19 18 18 18 17 16
24 24 23 22 22 23 23 23 23 24 23 22 21 21 20 19 19 18 19 21 22 22 22 21 21 21 21 21 21 21 21 21 21 20 20 20 19 19 18 17 17 17 16
24 22 22 22 23 24 24 23 23 23 22 21 20 20 19 18 19 19 18 19 22 22 22 21 21 21 21 21 21 21 20 20 20 20 19 19 19 18 18 18 17 17 16
22 22 21 22 25 25 25 25 24 23 22 20 20 19 20 19 20 21 19 19 22 21 21 21 21 21 21 22 21 20 21 20 20 19 18 18 18 18 16 16 16 16 16
23 23 24 25 25 25 25 25 23 21 20 19 19 19 19 20 20 21 21 19 19 20 20 21 21 21 22 22 21 20 20 19 19 19 17 17 17 16 16 15 14 15 15
23 23 24 24 26 25 25 23 21 19 19 19 19 19 19 19 20 19 18 18 19 19 18 18 18 17 16 20 19 19 19 19 18 18 17 16 15 15 15 14 13 13 14
23 25 25 24 24 23 22 22 21 19 19 19 19 19 19 18 17 17 18 18 19 18 18 18 20 21 18 16 17 18 18 18 17 17 16 15 15 14 14 13 13 12 12
22 24 24 23 24 24 23 20 19 18 18 18 18 17 18 18 18 18 18 18 19 20 21 21 20 20 18 15 17 18 18 17 16 16 15 15 14 13 12 12 11 11 10
20 21 21 20 21 21 20 19 18 18 18 18 18 18 18 19 19 18 18 18 19 20 21 19 19 18 15 15 17 18 17 16 15 14 14 14 14 13 11 11 10 10 10
19 20 20 18 17 18 19 20 18 19 19 18 17 17 17 17 18 17 18 18 18 19 20 18 16 15 16 16 16 15 14 14 14 13 13 13 12 11 10 11 10 10 9
17 18 17 16 16 17 19 19 19 19 19 18 18 18 17 17 17 19 19 19 19 18 18 17 17 16 15 16 14 14 14 13 13 13 12 11 10 10 10 10 9 9 9
17 17 17 17 16 18 19 19 19 21 21 18 17 17 17 17 17 16 15 17 18 16 16 16 16 16 15 15 14 14 14 13 12 11 10 9 9 9 8 8 8 9 8
Height
783 789 793 797 799 803 807 811 814 817 820 822 824 827 829 831 833 834 836 837 838 839 840 841 841 842 843 843 843 843 844 843 842 840 837 836 835 835 835 835 834 833 832
782 785 789 793 795 798 801 806 810 813 816 818 821 824 827 829 831 832 833 834 835 837 838 839 840 841 841 842 842 841 841 842 841 841 840 839 837 835 836 835 834 833 831
779 780 784 787 791 794 797 801 805 808 811 815 819 822 825 826 827 828 829 831 833 835 836 838 839 839 840 841 841 840 840 840 840 841 841 841 842 839 835 835 834 833 832
771 774 778 782 786 788 793 796 800 803 807 811 815 817 819 822 823 824 826 828 830 832 834 836 838 838 839 839 839 839 840 840 840 841 840 840 841 842 840 835 834 833 831
763 767 771 775 778 783 788 792 796 798 802 807 810 813 816 819 821 822 823 825 827 830 832 833 835 836 837 838 838 838 839 839 840 840 840 839 840 840 841 839 834 832 832
755 760 764 769 774 779 783 787 791 793 797 802 806 808 812 816 818 820 821 822 825 827 829 831 833 834 835 835 836 837 837 838 838 838 838 838 838 838 839 838 834 833 830
747 752 758 763 768 773 776 780 784 787 791 795 799 802 806 811 813 815 817 819 823 825 827 828 831 832 832 833 834 835 836 836 835 836 836 836 836 836 835 837 836 834 829
737 742 748 754 761 765 770 774 777 780 784 789 793 797 801 806 808 811 814 816 819 822 824 826 829 830 831 832 833 833 833 833 833 833 834 833 833 833 833 833 832 832 831
726 733 741 747 752 758 761 766 771 774 778 783 788 791 797 801 804 807 810 813 816 819 822 823 826 828 830 830 831 831 831 831 831 831 831 831 831 831 829 828 828 829 830
721 725 732 739 743 747 753 759 764 766 770 776 780 784 789 793 798 802 805 808 812 815 818 821 823 826 827 827 828 829 829 828 828 829 828 827 827 826 826 825 825 824 824
712 717 721 725 731 737 747 751 757 760 764 767 772 776 782 787 791 795 799 803 806 810 813 816 819 822 825 825 825 825 826 826 826 826 825 823 823 822 822 822 821 819 819
703 708 714 721 727 734 740 742 747 753 755 760 766 768 775 781 785 789 795 800 803 806 809 812 814 817 819 820 821 822 822 823 822 821 820 820 820 819 819 819 818 815 812
702 707 713 717 722 726 730 736 741 741 747 754 758 763 769 775 777 783 789 794 798 801 805 809 810 812 813 815 816 817 817 817 817 816 815 814 814 813 813 811 811 810 808
698 702 708 709 712 716 721 726 730 735 742 747 751 756 759 764 769 779 788 785 795 800 800 802 805 807 809 809 809 811 811 812 811 811 811 810 810 808 807 807 806 806 804
698 698 699 702 708 713 717 722 726 731 734 738 742 743 746 756 766 780 792 786 793 796 798 798 801 804 805 805 805 807 807 807 806 804 805 805 804 803 802 801 799 799 798
687 689 693 699 703 706 709 715 720 726 729 732 733 742 754 759 766 787 778 789 789 791 791 794 798 800 801 800 801 803 803 802 801 801 800 800 801 797 796 795 794 793 791
678 683 686 690 695 699 705 710 715 723 726 729 736 744 748 756 763 772 773 788 781 783 782 787 793 794 795 794 799 799 799 798 798 795 794 795 794 793 791 789 789 788 787
677 682 686 691 694 699 703 707 712 718 721 724 733 738 742 749 749 754 763 776 777 778 779 784 787 788 789 788 793 795 793 792 791 790 789 788 789 788 787 784 782 782 782
675 679 683 688 693 698 701 705 711 715 719 724 729 733 738 744 745 748 752 766 772 774 778 781 783 784 784 783 785 788 789 787 784 785 786 784 784 783 781 778 779 778 776
675 680 686 687 695 698 699 703 711 717 718 719 724 729 735 742 743 746 755 762 766 771 777 779 780 782 787 784 781 782 782 781 779 780 781 781 781 778 776 775 775 774 772
678 682 687 693 698 700 701 700 704 707 712 715 723 729 732 740 744 748 754 757 760 765 769 771 769 766 775 781 778 776 775 775 776 778 775 776 775 774 773 772 773 772 770
682 685 689 693 696 697 699 701 701 714 707 717 725 729 731 736 740 743 748 753 757 759 757 762 762 764 768 773 772 770 770 771 773 773 770 771 772 772 771 772 770 769 766
686 688 690 693 689 692 705 696 707 704 710 716 724 730 734 735 740 745 747 747 750 753 752 759 759 762 766 769 765 764 766 769 771 769 768 768 768 767 769 770 769 767 764
684 686 684 688 697 696 701 702 704 703 708 714 724 728 734 735 740 745 746 747 747 748 751 753 755 757 760 761 760 763 765 767 765 766 763 763 763 765 766 766 766 764 761
688 688 691 695 693 695 694 699 701 704 707 714 720 724 727 726 731 732 736 738 740 744 746 749 749 753 755 756 758 760 762 762 762 762 761 761 763 764 764 763 763 761 759
689 690 692 693 693 692 694 699 701 699 698 704 710 716 726 726 729 731 731 733 739 742 742 748 750 752 755 756 756 757 758 759 759 759 761 761 761 761 761 761 760 759 756
Wind_Speed
19 24 26 28 32 33 33 31 31 31 27 26 24 21 20 19 18 17 15 14 11 10 10 7 6 5 5 6 6 7 7 8 7 8 13 5 1 9 9 7 9 10 11
9 15 22 24 28 34 35 33 32 29 29 28 25 23 22 18 17 15 14 13 12 12 8 6 6 6 6 6 7 7 6 4 4 2 2 3 2 3 8 9 10 15 11
14 11 18 24 27 30 35 35 35 33 32 28 26 21 15 14 13 16 13 12 11 10 7 6 7 5 6 6 5 6 5 4 3 2 1 1 1 5 3 4 8 17 15
14 14 17 21 25 33 37 36 34 35 35 30 28 26 22 19 19 15 15 14 13 11 8 7 6 7 7 6 7 4 4 5 3 2 2 2 1 1 3 4 7 15 15
17 17 18 27 31 33 36 36 35 35 36 33 30 29 25 21 16 15 15 16 16 13 11 11 9 9 9 8 5 5 5 6 4 3 3 3 2 2 2 3 7 13 12
18 16 25 28 27 31 35 36 37 36 35 32 29 29 27 23 19 17 15 16 18 15 15 15 13 9 11 8 6 6 6 6 6 6 5 5 4 4 4 3 3 5 7
17 17 17 22 25 27 35 38 39 38 35 33 31 31 29 26 21 19 20 20 19 17 15 15 15 12 9 8 6 5 6 6 7 7 7 8 8 7 7 6 5 3 6
17 20 19 25 26 30 35 35 37 40 38 36 34 33 31 28 24 21 22 23 20 17 14 14 12 9 8 9 6 6 8 10 7 9 11 12 12 11 11 9 7 2 3
20 20 19 28 29 31 36 40 39 39 38 38 36 34 31 30 27 23 23 23 19 16 15 14 12 13 12 11 10 7 7 6 9 10 12 15 16 15 15 15 13 7 2
17 18 18 27 32 36 38 39 40 41 41 40 40 37 34 32 28 24 25 24 21 19 18 15 14 14 14 13 12 11 10 11 12 15 15 16 17 19 18 19 17 15 12
17 17 19 32 36 37 34 35 35 36 38 44 44 40 37 34 29 27 26 25 22 20 19 18 17 17 16 14 14 13 12 14 15 15 16 17 17 18 19 20 20 19 18
16 17 18 26 28 31 32 35 35 33 40 42 41 43 39 38 34 31 28 25 23 22 20 20 19 19 18 16 15 12 12 14 14 14 14 17 16 17 17 19 23 24 25
10 11 12 15 23 28 32 32 32 39 36 35 41 40 41 41 39 34 29 27 24 22 21 20 20 19 19 16 13 13 13 15 16 16 17 17 15 17 16 17 21 25 27
12 12 11 15 24 28 30 32 34 34 31 33 39 40 44 47 43 35 30 27 24 22 23 22 21 19 17 15 14 14 16 18 19 18 18 16 15 16 17 19 21 24 25
10 14 16 13 13 19 23 26 29 30 35 37 38 45 50 41 31 32 32 22 26 27 24 22 22 20 18 17 16 17 18 19 19 17 17 16 15 16 18 20 21 22 23
16 13 10 8 10 19 24 24 27 30 32 35 39 32 23 26 29 18 27 33 31 31 29 26 24 21 20 18 19 20 21 21 20 19 17 17 18 19 18 17 20 23 24
14 11 12 11 14 22 24 26 28 24 28 30 25 21 26 26 32 25 29 43 30 32 31 28 26 24 21 16 22 21 20 21 21 19 20 20 20 18 16 19 21 21 21
8 7 6 7 15 16 20 24 24 26 29 27 22 25 30 34 33 26 30 33 33 31 26 26 27 25 23 17 22 20 21 20 21 22 20 18 20 19 18 19 21 19 17
4 4 11 10 11 15 16 20 21 23 24 22 26 30 33 38 35 32 35 35 28 26 24 23 24 24 24 22 22 16 22 20 19 18 18 16 17 17 17 17 17 18 18
9 10 9 5 0 6 12 16 15 19 21 25 28 31 33 37 32 26 22 19 16 12 10 6 3 13 30 29 20 20 18 18 15 16 16 14 14 15 16 14 12 13 16
13 11 10 8 2 3 12 17 20 24 24 27 26 27 24 27 17 15 18 15 11 8 8 8 11 16 22 41 24 16 14 14 13 15 14 11 11 11 10 9 9 12 16
11 11 9 7 5 6 13 17 12 16 22 22 24 21 21 17 13 15 16 13 10 11 10 13 15 14 24 32 19 13 12 12 13 13 11 10 10 11 9 8 9 12 14
10 12 9 8 9 3 15 12 16 18 22 23 23 22 19 19 18 17 20 16 12 12 11 22 21 20 19 15 9 10 11 11 10 10 11 13 13 11 7 7 10 12 13
7 9 13 12 5 9 9 11 16 19 23 25 25 25 23 20 20 18 10 7 6 7 9 21 22 16 12 11 9 8 8 9 9 11 12 13 6 6 5 6 9 10 11
12 10 8 11 12 15 16 18 20 24 25 27 26 24 24 27 24 18 14 9 10 16 19 22 13 14 16 13 11 9 8 9 11 12 8 2 5 4 4 8 9 9 10
7 9 9 4 9 15 19 23 30 31 35 29 26 23 23 23 22 19 10 11 14 13 8 11 9 10 8 8 9 9 10 12 11 6 4 4 3 2 5 7 8 9 12
Wind_Direction
205 204 206 204 209 214 215 217 218 221 221 218 220 223 230 232 236 238 243 245 247 256 271 260 258 242 248 276 283 293 302 316 325 327 334 6 52 49 58 44 38 25 23
188 193 201 201 205 212 215 217 217 220 218 221 220 221 225 230 237 237 237 243 248 244 232 233 231 254 268 274 288 286 286 298 308 320 353 355 354 313 47 55 43 20 18
204 199 194 197 205 208 212 215 216 218 220 221 218 217 225 233 232 230 226 220 221 208 217 238 263 254 259 275 279 281 265 264 261 303 228 30 315 334 347 6 22 15 21
210 203 196 199 203 213 218 218 217 220 221 222 219 219 222 223 229 226 221 223 210 207 221 232 250 239 245 261 282 259 254 239 236 220 182 279 249 325 325 333 347 4 19
206 205 204 204 205 212 217 220 221 223 224 223 225 222 226 231 232 228 231 218 203 208 219 216 220 223 238 261 245 248 248 249 245 219 228 251 281 207 169 281 316 344 8
203 203 203 203 207 206 214 220 221 225 222 223 224 223 225 227 228 231 225 205 203 212 215 218 218 227 241 243 233 241 254 251 243 238 239 219 201 210 230 266 288 299 328
196 195 192 196 198 198 209 216 219 221 221 221 223 222 223 222 227 229 213 201 203 215 223 216 211 220 225 203 214 248 255 245 244 250 248 237 242 246 229 227 270 300 312
197 196 194 193 195 200 209 210 214 218 220 220 223 222 223 223 229 235 222 209 212 218 214 195 202 215 213 206 241 268 264 245 256 254 255 256 252 255 250 232 205 251 285
198 196 191 192 196 201 207 210 213 218 220 222 223 221 222 224 227 227 221 214 215 217 204 202 215 218 221 233 245 265 275 276 269 276 267 263 266 266 263 254 253 212 263
196 194 190 194 199 205 209 210 214 216 218 222 223 220 219 220 218 217 214 213 212 209 212 216 218 225 234 241 248 262 274 276 279 285 283 278 269 264 265 258 257 249 243
193 191 194 198 201 206 206 208 211 212 216 222 222 221 218 215 209 209 209 204 205 213 219 221 219 229 237 243 253 261 270 277 286 286 284 284 282 272 268 260 256 257 253
192 192 194 196 202 206 207 208 209 210 216 220 219 220 218 210 207 208 209 213 214 216 220 216 224 233 239 245 253 262 271 278 280 282 280 283 288 284 280 271 266 262 264
180 186 187 196 200 204 208 211 208 213 213 212 218 215 216 210 207 208 206 207 208 213 213 219 226 232 235 237 242 255 263 272 279 279 280 283 285 288 283 282 276 275 275
179 182 189 199 203 202 203 207 211 213 207 206 213 212 214 214 209 203 207 204 209 213 214 221 228 233 232 232 239 254 268 275 274 275 274 281 284 286 286 286 283 284 283
179 194 201 204 195 199 206 209 211 207 205 206 208 214 218 211 197 192 216 218 218 223 225 226 229 232 234 242 252 262 271 272 268 268 270 277 286 291 291 285 283 283 284
204 202 201 186 190 199 203 202 206 207 205 206 212 214 198 187 179 196 229 244 228 229 230 232 232 233 239 247 261 269 273 271 267 265 272 278 283 290 289 280 278 283 281
197 187 191 194 197 201 202 202 208 203 207 211 210 197 186 176 171 185 234 243 232 233 232 231 233 236 242 250 268 273 272 269 267 267 270 273 282 284 282 286 286 289 285
176 179 171 188 213 215 217 221 213 202 204 204 190 186 189 182 186 190 215 243 236 240 238 236 237 239 242 247 264 272 273 267 269 271 272 270 278 282 290 294 293 290 288
99 155 186 208 216 219 223 215 204 195 191 190 188 185 182 191 190 206 215 233 237 245 243 245 244 244 251 253 258 264 276 277 274 273 269 274 280 288 289 296 291 291 297
72 67 63 81 116 208 202 200 189 178 183 189 194 193 186 192 203 208 216 223 232 244 246 257 317 342 304 279 257 271 268 266 266 269 274 280 284 290 290 286 283 293 306
77 87 87 86 120 174 188 185 193 190 189 189 196 194 191 200 203 186 192 185 182 169 189 223 254 246 286 281 275 265 261 262 268 271 281 285 293 297 284 277 288 305 312
72 84 107 118 132 159 186 199 194 190 167 175 183 187 199 207 205 188 178 188 196 224 229 269 252 258 230 259 258 258 262 262 263 269 277 287 293 298 278 277 298 308 312
98 86 92 116 83 80 218 176 208 155 149 154 164 169 177 181 191 185 192 202 220 237 256 256 262 246 250 242 253 267 258 261 257 271 284 297 302 286 237 279 304 312 321
53 79 82 75 130 164 189 199 167 149 146 151 158 155 153 145 147 153 159 190 236 247 264 248 240 250 239 237 238 232 234 244 263 278 289 305 285 199 228 288 308 322 335
27 50 118 153 139 156 159 164 153 149 144 148 152 160 167 163 167 174 174 214 229 240 242 246 250 247 229 227 214 221 244 263 272 278 294 223 185 217 286 312 319 329 339
42 42 29 67 156 162 168 169 162 159 158 166 167 165 166 169 172 179 194 207 221 237 242 259 240 220 220 207 225 249 271 273 270 273 225 190 200 287 316 322 331 340 346